Wind_Speed
10 8 6 5 5 8 9 11 12 11 11 10 8 4 4 6 9 10 11 10 11 15 20 22 17 16 14 11 7 4 3 4 4 4 5 7 6 3 5 11 14 13 9
12 9 8 4 3 6 7 9 9 11 11 12 11 11 9 7 7 7 9 7 11 16 17 16 18 17 16 13 8 6 3 2 6 2 3 6 9 10 11 10 7 6 4
14 12 8 5 3 5 6 7 9 10 13 15 15 17 17 17 16 14 12 12 12 13 15 15 16 13 13 13 11 9 9 8 5 3 1 3 4 4 5 7 7 6 4
13 11 8 6 3 4 6 7 9 11 13 17 19 18 18 17 16 15 15 15 14 13 11 12 13 14 14 12 11 9 7 4 5 8 7 7 5 6 7 9 8 8 6
14 12 10 7 7 7 8 9 11 12 14 15 18 20 21 21 19 19 20 19 17 17 15 13 10 8 8 6 4 5 5 5 6 6 4 4 3 5 5 6 9 8 8
14 13 13 12 12 11 13 12 11 12 13 14 15 17 19 16 12 12 12 13 13 13 13 12 10 9 9 8 5 2 3 5 6 5 4 2 2 2 4 8 15 10 4
17 14 13 18 17 16 14 13 12 12 11 12 13 14 16 15 13 13 14 17 17 16 14 13 13 12 12 14 14 12 8 1 4 4 4 4 2 2 2 2 12 12 6
16 15 13 18 18 18 16 16 15 13 13 13 13 13 14 12 10 13 14 15 16 14 12 12 15 16 16 18 21 24 26 24 21 18 16 15 11 7 6 7 8 12 13
5 14 21 22 20 20 18 16 15 13 14 15 14 15 16 14 10 12 14 16 16 17 16 15 15 16 15 16 20 23 23 22 19 20 21 20 19 14 9 10 11 7 5
3 11 23 25 24 23 20 18 16 14 15 16 15 17 17 16 11 10 12 17 20 22 22 20 16 15 13 13 15 15 18 14 12 12 14 15 15 14 13 13 11 11 6
5 14 21 23 23 23 22 19 18 17 17 17 18 18 18 15 12 10 12 19 23 24 24 22 20 16 15 14 13 12 13 9 10 11 13 13 14 15 15 16 15 13 9
11 15 19 19 21 22 24 22 19 18 20 21 22 22 19 17 14 13 14 17 18 21 20 17 14 12 14 14 14 14 14 14 15 13 14 15 15 14 12 8 8 4 4
16 16 17 19 20 20 21 21 19 19 20 20 21 22 19 17 17 15 16 15 16 18 18 18 17 16 17 18 16 15 14 15 15 16 15 15 14 13 9 7 7 5 3
19 19 19 20 22 17 18 17 17 18 18 17 18 18 18 17 17 17 18 19 20 20 17 16 17 18 17 17 15 14 14 15 16 15 14 12 11 11 12 8 6 6 6
22 21 22 21 22 21 19 17 15 12 13 17 18 19 21 20 19 19 18 17 15 14 13 13 13 13 13 14 15 15 14 13 14 12 11 11 12 13 12 11 9 9 11
24 22 23 24 25 25 25 23 18 16 14 13 14 16 18 18 16 15 13 12 13 15 13 13 12 10 9 8 8 9 9 9 10 9 9 10 10 11 11 10 10 9 9
24 24 25 25 24 24 23 23 23 16 15 13 13 14 15 18 15 13 11 10 10 10 11 11 10 7 5 8 7 7 8 7 6 9 9 8 8 8 9 9 10 8 7
23 24 24 24 23 22 20 20 20 20 18 16 14 15 16 14 11 8 7 7 7 7 7 6 6 8 9 5 4 5 6 9 8 6 6 6 6 7 7 8 10 11 8
24 23 22 21 19 18 18 18 17 18 19 20 18 16 13 10 7 5 7 8 9 9 8 8 10 9 6 6 4 2 2 6 4 3 4 4 5 5 5 6 8 9 7
18 20 19 19 18 16 15 15 15 15 16 17 17 16 13 10 9 8 8 9 7 8 9 8 9 7 6 5 1 2 1 5 7 4 2 3 5 4 4 6 7 7 4
16 16 18 17 17 16 16 15 14 13 13 13 13 14 12 10 7 5 4 7 6 6 6 4 7 8 9 8 5 4 4 5 8 4 2 2 4 4 3 4 6 5 4
13 15 18 19 19 19 19 17 16 16 14 13 13 13 11 9 9 11 11 11 9 6 3 4 5 6 9 8 7 6 5 6 9 8 5 4 6 3 2 3 4 3 3
15 16 21 25 28 25 25 23 23 22 21 19 17 16 17 15 13 14 15 14 11 9 6 6 7 7 11 10 9 9 11 11 10 8 6 7 8 4 2 1 0 3 5
17 20 19 23 22 21 21 22 25 24 22 25 23 20 20 20 19 19 18 15 13 12 10 10 9 9 12 9 8 6 6 8 9 9 9 10 6 5 3 2 1 4 5
3 2 12 21 20 22 22 23 23 21 23 25 26 24 24 23 23 23 21 18 15 14 14 14 15 14 10 6 3 4 6 8 10 10 9 7 7 7 4 1 2 4 5
4 4 5 10 17 20 19 21 22 23 25 26 25 28 26 28 26 26 24 22 21 17 18 16 18 17 13 10 6 2 4 6 6 6 7 7 10 8 5 5 5 4 5
Wind_Direction
178 179 159 128 81 49 43 40 35 41 43 55 68 113 177 215 215 218 220 227 237 221 199 195 194 203 200 188 178 183 231 228 247 306 340 347 357 312 186 173 169 187 206
176 172 166 137 86 58 50 41 40 54 62 65 71 83 102 138 159 170 176 191 180 177 178 186 177 166 162 159 156 140 138 239 238 266 355 56 97 113 118 122 131 155 175
179 176 184 165 118 87 70 63 70 66 71 76 85 90 96 102 113 113 113 119 136 147 158 168 177 175 164 163 164 151 121 95 90 118 129 135 132 148 130 121 131 151 166
183 183 194 197 172 116 99 88 87 84 76 78 83 87 89 96 104 111 115 117 121 130 146 158 162 165 159 152 152 154 162 161 122 125 119 107 122 123 120 120 113 129 139
183 185 191 181 173 151 126 114 104 94 85 86 89 89 90 90 95 102 104 100 96 94 94 101 114 137 152 159 168 167 177 163 153 141 118 110 105 145 176 170 140 131 112
188 191 175 162 163 150 137 132 119 102 92 86 88 90 90 88 97 103 107 106 104 107 110 108 103 102 100 103 102 111 207 227 219 210 200 199 215 218 187 179 171 149 122
200 200 185 165 156 151 149 145 131 114 111 103 101 98 93 92 94 97 103 107 104 102 103 99 95 92 93 89 82 77 76 92 243 245 117 68 73 49 240 198 158 135 111
202 199 182 168 156 152 153 145 133 125 114 108 106 108 104 101 104 107 110 108 100 101 104 106 98 97 98 99 94 84 77 73 77 86 86 74 71 51 45 78 116 120 101
203 196 186 177 169 161 154 146 139 133 117 107 103 117 119 114 117 121 120 109 97 86 94 107 101 99 100 102 96 92 87 83 80 79 79 78 76 75 70 98 100 94 82
84 166 184 181 175 164 156 147 139 131 119 118 115 118 121 121 126 128 119 111 106 102 99 98 94 94 97 94 88 87 87 83 88 86 77 67 57 53 51 59 63 67 62
129 147 160 172 169 162 153 145 138 127 120 115 115 113 113 111 110 113 120 117 116 114 109 100 94 91 83 72 72 78 85 94 95 92 80 64 58 55 57 57 57 58 62
135 144 145 153 154 154 150 141 137 131 121 115 116 109 105 105 104 109 118 115 118 115 106 98 87 83 81 76 76 80 88 95 104 90 77 67 62 53 50 50 38 43 52
125 121 127 141 140 142 139 135 134 130 126 122 116 113 109 108 108 110 112 113 111 105 103 101 97 89 86 84 81 83 84 84 85 81 73 68 59 49 42 38 36 35 57
117 117 121 123 125 124 126 129 129 131 134 130 123 119 121 118 115 115 114 112 111 109 107 102 99 94 92 85 76 76 79 83 84 78 73 64 57 44 37 32 34 46 43
122 123 122 121 116 116 110 109 116 124 134 135 132 132 128 122 118 117 115 112 110 109 112 112 109 106 101 88 77 84 81 80 79 77 69 58 48 37 36 37 52 66 59
124 125 125 124 124 121 117 108 101 103 108 117 124 132 128 125 126 122 117 112 110 113 113 112 107 108 110 105 90 87 82 77 71 70 73 62 46 37 40 50 54 43 37
132 132 130 128 128 128 124 120 113 107 112 116 124 127 131 130 127 122 122 122 124 133 121 120 118 117 115 118 109 97 93 78 79 94 76 55 40 38 47 47 39 29 29
134 134 136 135 134 133 134 135 135 137 133 126 128 133 133 129 125 125 134 146 149 156 150 157 156 139 135 129 102 94 92 108 110 93 68 50 41 44 43 42 37 28 25
137 141 142 142 142 143 143 144 146 145 143 143 145 146 144 139 129 138 175 187 186 191 192 177 161 158 141 121 92 105 34 161 161 135 74 40 38 32 36 31 24 23 33
144 153 160 156 157 158 159 157 156 160 159 162 163 160 160 155 145 125 128 146 175 194 193 203 202 191 184 160 135 285 297 194 193 175 89 40 18 22 34 17 12 4 19
166 177 184 184 180 181 181 182 178 179 179 182 178 176 178 176 174 172 175 176 171 175 185 204 218 219 207 197 218 240 262 212 205 213 232 7 355 330 348 10 13 10 113
193 209 212 220 213 213 214 210 207 210 209 207 200 196 199 212 224 230 214 204 201 193 221 240 200 200 202 208 226 229 232 220 222 229 234 294 333 304 278 350 2 68 50
225 237 239 236 230 234 232 232 227 228 228 227 228 222 218 222 223 210 209 211 206 201 212 192 198 205 206 222 241 261 264 263 248 237 255 285 305 250 281 323 91 9 356
246 252 241 228 214 219 221 225 231 231 228 225 226 226 216 216 213 211 214 212 209 211 207 218 237 230 218 234 266 259 239 230 233 245 267 282 267 215 243 201 304 330 328
342 332 219 216 209 209 207 208 214 213 215 221 223 225 220 218 217 216 218 215 219 227 223 232 240 228 226 248 237 247 238 231 248 263 263 253 230 205 209 261 302 307 326
328 324 259 230 225 225 224 223 224 220 220 225 233 230 225 222 224 223 220 221 221 227 227 239 231 223 229 221 216 228 245 241 236 242 259 241 200 208 230 283 283 294 321
Height
790 792 792 792 791 791 789 787 784 781 778 774 772 772 774 776 777 779 781 783 785 787 789 792 795 798 801 803 805 805 806 807 810 809 808 807 806 806 805 806 808 811 813
789 791 793 793 792 791 791 790 787 785 781 778 775 774 773 774 777 779 781 783 784 786 787 790 794 797 799 801 803 805 806 806 808 808 808 808 807 809 810 808 810 811 813
788 789 792 793 793 792 793 792 790 789 785 781 779 779 778 777 779 781 783 785 786 788 790 791 794 796 798 800 802 804 805 806 806 807 808 807 809 810 811 810 811 812 814
788 788 790 792 793 793 793 793 793 792 790 787 785 784 783 783 783 785 786 788 789 791 793 796 797 799 800 802 803 804 805 807 806 807 807 807 809 809 810 812 813 815 817
786 787 789 791 793 793 793 794 795 795 794 793 791 789 788 788 790 790 791 793 794 796 798 799 801 802 803 804 805 805 806 807 807 808 808 808 809 809 811 812 815 817 819
785 786 788 790 792 793 794 795 797 797 797 797 796 794 793 794 795 795 796 797 799 801 803 804 805 806 806 807 808 807 807 807 808 808 808 809 810 810 811 812 813 816 819
783 786 789 789 791 793 795 796 797 798 798 799 798 798 798 799 800 799 800 802 803 806 807 809 809 810 811 810 810 809 809 809 810 811 810 812 813 813 811 811 811 812 817
782 785 789 791 792 794 796 797 798 799 800 800 801 801 803 804 804 804 804 806 808 810 811 813 813 813 814 813 813 813 813 813 813 814 815 816 816 816 816 815 815 817 820
780 783 786 789 791 794 798 799 800 801 802 802 802 803 805 807 808 808 808 810 812 814 814 817 817 817 819 819 817 818 819 821 822 821 821 822 821 821 821 819 821 822 825
781 782 785 788 790 793 796 800 802 803 804 804 804 806 807 809 811 812 813 813 814 818 820 821 822 823 824 824 822 823 823 825 826 826 826 826 825 825 824 822 823 824 826
782 782 785 788 791 794 797 801 804 805 806 807 808 809 811 813 815 816 817 816 817 820 822 824 826 827 827 828 827 826 827 828 828 829 828 828 828 828 829 828 827 827 828
783 785 787 791 794 797 799 802 805 807 807 809 811 813 815 817 819 820 821 821 823 823 825 828 830 831 831 831 831 831 831 831 831 831 832 832 832 832 832 831 831 831 831
785 789 791 794 797 801 802 804 806 808 811 813 815 816 819 821 823 824 825 826 827 829 831 833 834 835 835 835 835 835 835 835 835 835 836 836 836 836 835 834 834 833 832
790 794 796 798 800 805 805 807 809 810 814 817 818 821 823 825 827 828 828 830 831 833 836 837 838 838 839 840 839 839 839 839 839 840 840 840 840 839 837 835 835 834 834
794 798 800 803 804 809 812 814 815 818 818 819 821 824 826 828 830 832 833 834 836 837 839 840 841 842 843 843 842 842 843 843 843 842 842 842 842 841 839 837 836 836 835
799 802 805 808 809 812 815 818 821 822 824 825 826 827 830 832 833 835 837 838 838 840 841 842 844 845 845 845 845 845 845 845 845 844 844 844 844 842 841 840 839 838 837
802 806 810 811 815 817 818 820 822 827 827 829 830 832 832 834 836 838 839 840 840 842 843 844 845 846 847 846 847 847 847 846 846 846 846 846 845 844 843 841 841 839 838
807 810 813 815 817 818 820 823 824 826 829 830 832 834 835 837 838 840 841 841 843 844 845 846 847 847 848 848 848 848 848 848 848 847 847 847 846 845 843 842 841 840 839
809 816 819 821 822 823 824 825 827 828 829 830 833 836 838 839 840 840 841 842 843 845 846 847 847 848 848 848 848 848 848 848 848 848 847 847 846 845 844 843 842 841 839
816 820 824 824 825 827 828 828 829 830 830 832 833 836 838 839 841 841 841 842 843 844 845 846 847 847 848 848 849 848 848 847 847 847 847 846 845 845 844 843 842 841 840
819 824 827 826 825 827 829 830 831 832 833 834 835 836 839 840 841 841 842 843 844 844 845 845 845 846 847 848 848 848 847 846 846 846 846 846 845 844 844 843 842 841 840
820 824 827 827 827 827 828 830 831 832 834 835 836 836 838 839 839 840 841 842 843 844 844 844 844 845 846 846 846 846 845 845 845 845 845 845 844 844 843 843 842 841 841
820 821 821 821 822 823 827 828 830 831 832 833 834 834 835 835 836 838 839 840 842 842 843 843 844 844 844 844 844 844 843 843 843 843 843 843 843 843 843 842 842 842 841
818 817 815 816 816 818 820 824 826 827 828 829 830 831 831 832 834 835 836 838 839 840 840 841 842 842 842 842 842 841 841 841 841 842 842 841 841 841 842 841 841 841 840
817 814 813 814 813 814 817 821 823 824 825 825 826 827 828 830 831 832 833 834 836 837 837 838 838 839 840 839 839 838 838 838 839 839 839 839 839 840 840 840 840 840 839
817 814 811 810 811 814 816 818 820 820 820 821 822 823 824 825 826 828 829 831 832 833 833 834 834 835 836 836 836 836 835 835 836 837 837 837 838 839 839 839 838 838 837